Probability
0 0 0 0 0 0 0 0 0 0 0 0 0 0 0 0 0 0 0 0 0 0 0 0 0 0 0 0 0 0 0 0 0 0 0 0 0 0 0 0 0 0 0 0 0 0 0 0 0
0 0 0 0 0 0 0 0 0 0 0 0 0 0 0 0 0 0 0 0 0 0 0 0 0 0 0 0 0 0 0 0 0 0 0 0 0 0 0 0 0 0 0 0 0 0 0 0 0
0 0 0 0 0 0 0 0 0 0 0 0 0 0 0 0 0 0 0 0 0 0 0 0 0 0 0 0 0 0 0 0 0 0 0 0 0 0 0 0 0 0 0 0 0 0 0 0 0
0 0 0 0 0 0 0 0 0 0 0 0 0 0 0 0 0 0 0 0 0 0 0 0 0 0 0 0 0 0 0 0 0 0 0 0 0 0 0 0 0 0 0 0 0 0 0 0 0
0 0 0 0 0 0 0 0 0 0 0 0 0 0 0 0 0 0 0 0 0 0 0 0 0 0 0 0 0 0 0 0 0 0 0 0 0 0 0 0 0 0 0 0 0 0 0 0 0
0 0 0 0 0 0 0 0 0 0 0 0 0 0 0 0 0 0 0 0 0 0 0 0 0 0 0 0 0 0 0 0 0 0 0 0 0 0 0 0 0 0 0 0 0 0 0 0 0
0 0 0 0 0 0 0 0 0 0 0 0 0 0 0 0 0 0 0 0 0 0 0 0 0 0 0 0 0 0 0 0 0 0 0 0 0 0 0 0 0 0 0 0 0 0 0 0 0
0 0 0 0 0 0 0 0 0 0 0 0 0 0 0 0 0 0 0 0 0 0 0 0 0 0 0 0 0 0 0 0 0 0 0 0 0 0 0 0 0 0 0 0 0 0 0 0 0
0 0 0 0 0 0 0 0 0 0 0 0 0 0 0 0 0 0 0 0 0 0 0 0 0 0 0 0 0 0 0 0 0 0 0 0 0 0 0 0 0 0 0 0 0 0 0 0 0
0 0 0 0 0 0 0 0 0 0 0 0 0 0 0 0 0 0 0 0 0 0 0 0 0 0 0 0 0 0 0 0 0 0 0 0 0 0 0 0 0 0 0 0 0 0 0 0 0
0 0 0 0 0 0 0 0 0 0 0 0 0 0 0 0 0 0 0 0 0 0 0 0 0 0 0 0 0 0 0 0 0 0 0 0 0 0 0 0 0 0 0 0 0 0 0 0 0
0 0 0 0 0 0 0 0 0 0 0 0 0 0 0 0 0 0 0 0 0 0 0 0 0 0 0 0 0 0 0 0 0 0 0 0 0 0 0 0 0 0 0 0 0 0 0 0 0
0 0 0 0 0 0 0 0 0 0 0 0 0 0 0 0 0 0 0 0 0 0 0 0 0 0 0 0 0 0 0 0 0 0 0 0 0 0 0 0 0 0 0 0 0 0 0 0 0
0 0 0 0 0 0 0 0 0 0 0 0 0 0 0 0 0 0 0 0 0 0 0 0 0 0 0 0 0 0 0 0 0 0 0 0 0 0 0 0 0 0 0 0 0 0 0 0 0
0 0 0 0 0 0 0 0 0 0 0 0 0 0 0 0 0 0 0 0 0 0 0 1 1 1 1 0 0 0 0 0 0 0 0 0 0 0 0 0 0 0 0 0 0 0 0 0 0
0 0 0 0 0 0 0 0 0 0 0 0 0 0 0 0 0 0 0 0 0 0 0 1 2 2 2 1 0 0 0 0 0 0 0 0 0 0 0 0 0 0 0 0 0 0 0 0 0
0 0 0 0 0 0 0 0 0 0 0 0 0 0 0 0 0 0 0 0 0 0 0 0 1 2 3 2 1 0 0 0 0 0 0 0 0 0 0 0 0 0 0 0 0 0 0 0 0
0 0 0 0 0 0 0 0 0 0 0 0 0 0 0 0 0 0 0 0 0 0 0 0 0 2 3 2 1 0 0 0 0 0 0 0 0 0 0 0 0 0 0 0 0 0 0 0 0
0 0 0 0 0 0 0 0 0 0 0 0 0 0 0 0 0 0 0 0 0 0 0 0 1 2 3 2 1 0 0 0 0 0 0 0 0 0 0 0 0 0 0 0 0 0 0 0 0
0 0 0 0 0 0 0 0 0 0 0 0 0 0 0 0 0 0 0 0 0 0 0 0 1 2 3 2 1 0 0 0 0 0 0 0 0 0 0 0 0 0 0 0 0 0 0 0 0
0 0 0 0 0 0 0 0 0 0 0 0 0 0 0 0 0 0 0 0 0 0 0 0 0 1 2 2 1 0 0 0 0 0 0 0 0 0 0 0 0 0 0 0 0 0 0 0 0
0 0 0 0 0 0 0 0 0 0 0 0 0 0 0 0 0 0 0 0 0 0 0 0 0 0 1 2 1 0 0 0 0 0 0 0 0 0 0 0 0 0 0 0 0 0 0 0 0
0 0 0 0 0 0 0 0 0 0 0 0 0 0 0 0 0 0 0 0 0 0 0 0 0 0 0 1 2 1 0 0 0 0 0 0 0 0 0 0 0 0 0 0 0 0 0 0 0
0 0 0 0 0 0 0 0 0 0 0 0 0 0 0 0 0 0 0 0 0 0 0 0 0 0 0 1 2 1 0 0 0 0 0 0 0 0 0 0 0 0 0 0 0 0 0 0 0
0 0 0 0 0 0 0 0 0 0 0 0 0 0 0 0 0 0 0 0 0 0 0 0 0 0 0 0 1 1 0 0 0 0 0 0 0 0 0 0 0 0 0 0 0 0 0 0 0
0 0 0 0 0 0 0 0 0 0 0 0 0 0 0 0 0 0 0 0 0 0 0 0 0 0 0 0 0 0 0 0 0 0 0 0 0 0 0 0 0 0 0 0 0 0 0 0 0
0 0 0 0 0 0 0 0 0 0 0 0 0 0 0 0 0 0 0 0 0 0 0 0 0 0 0 0 0 0 0 0 0 0 0 0 0 0 0 0 0 0 0 0 0 0 0 0 0
0 0 0 0 0 0 0 0 0 0 0 0 0 0 0 0 0 0 0 0 0 0 0 0 0 0 0 0 0 0 0 0 0 0 0 0 0 0 0 1 1 1 1 0 0 0 0 0 0
0 0 0 0 0 0 0 0 0 0 0 0 0 0 0 0 0 0 0 0 0 0 0 0 0 0 0 0 0 0 0 0 0 0 0 0 0 0 0 1 2 2 2 1 1 0 0 0 0
0 0 0 0 0 0 0 0 0 0 0 0 0 0 0 0 0 0 0 0 0 0 0 0 0 0 0 0 0 0 0 0 0 0 0 0 0 0 0 1 3 3 3 2 2 1 0 0 0
Wind_Speed
16 14 8 3 3 3 1 4 4 4 5 6 6 5 6 10 7 7 4 9 12 13 13 10 10 11 12 12 11 12 12 12 12 12 11 11 12 12 13 13 13 13 13 14 14 14 14 13 13
13 13 6 3 3 2 2 4 5 8 7 4 2 2 2 9 7 7 5 8 11 12 12 11 11 11 12 11 11 11 11 12 11 11 11 11 11 11 12 12 12 12 13 13 13 13 12 12 12
13 10 4 4 3 3 3 5 9 9 5 1 2 3 6 6 7 6 7 8 10 10 11 12 11 11 12 11 11 11 11 11 11 11 10 10 10 10 10 11 11 11 11 12 12 12 11 11 10
7 4 3 4 4 3 4 4 8 7 4 1 1 5 6 5 4 7 8 8 9 9 11 11 11 11 11 11 11 11 11 11 11 10 10 10 10 9 9 10 10 10 11 11 11 10 10 9 9
5 3 4 5 4 2 3 4 4 5 5 4 1 5 7 5 8 10 7 8 9 9 10 11 10 10 10 11 11 11 11 11 10 10 10 10 9 9 9 9 10 9 10 10 9 9 9 8 7
4 3 4 5 3 3 2 3 1 2 4 4 1 3 7 6 8 8 7 7 8 9 10 10 9 9 9 9 10 10 10 10 10 10 10 9 9 8 8 8 9 9 8 8 8 8 8 7 6
4 4 6 7 4 2 3 3 2 1 3 4 0 2 7 7 8 7 6 5 8 8 8 9 7 8 8 8 9 9 9 9 9 9 9 8 7 7 7 6 7 8 8 7 7 7 6 6 5
4 4 7 7 6 2 5 2 1 3 2 4 2 2 7 9 9 7 6 4 6 7 7 8 8 8 7 6 8 9 9 9 9 8 8 8 7 7 6 5 5 7 7 7 6 6 5 4 3
3 4 7 7 5 1 6 3 2 3 2 2 2 5 8 14 10 7 5 4 4 5 5 6 7 7 8 8 9 8 8 9 9 8 9 8 5 5 4 5 6 6 6 6 6 5 4 4 3
3 5 9 7 5 2 3 3 3 2 4 4 5 7 10 11 10 9 8 7 7 6 6 5 6 6 7 7 7 5 6 6 6 6 6 5 4 4 5 7 7 6 6 6 5 5 4 4 3
5 7 8 8 5 5 2 2 1 3 5 5 7 11 11 11 9 9 9 9 8 7 6 5 5 6 5 4 6 4 4 5 6 7 7 5 3 3 4 3 4 4 5 4 4 4 4 4 3
8 8 8 7 3 3 3 3 4 6 4 3 3 9 11 11 11 10 10 9 9 9 9 7 6 5 5 5 4 4 4 4 4 5 7 4 3 3 3 3 4 4 3 4 4 4 5 4 2
10 8 8 6 2 3 5 6 6 7 5 0 3 6 8 9 9 9 9 8 8 9 9 9 7 6 5 5 4 4 4 5 5 5 5 5 4 4 4 3 4 4 4 4 4 4 4 4 3
6 7 8 7 5 5 6 8 8 8 5 4 5 6 8 9 10 9 9 9 9 9 9 9 9 8 7 5 5 4 4 4 5 5 6 6 5 4 4 4 4 4 4 4 4 5 4 3 3
5 7 9 8 7 5 5 9 11 11 7 7 7 8 9 9 9 10 10 10 10 9 9 9 10 9 8 7 7 5 5 4 4 5 7 7 6 6 5 4 4 4 4 4 3 4 3 3 3
5 7 10 9 9 7 6 11 9 9 10 10 9 8 8 9 9 9 10 10 10 9 10 10 9 10 10 8 7 5 5 6 5 5 5 8 8 7 5 5 5 5 4 4 3 3 3 3 3
8 10 12 10 11 9 10 10 7 5 6 8 8 7 7 8 9 9 9 10 10 11 11 11 11 10 10 9 7 6 6 6 5 5 6 7 8 8 6 5 5 6 5 4 4 4 4 4 4
10 11 11 12 8 9 11 11 9 6 7 7 7 7 7 7 8 9 9 9 9 10 10 11 12 11 10 8 6 6 6 6 6 6 7 8 8 9 7 6 7 6 5 5 5 5 5 4 4
10 11 12 10 7 8 11 13 12 10 9 9 8 8 8 9 8 8 9 9 9 9 9 11 11 12 10 9 9 9 9 7 6 7 8 9 9 10 9 6 7 7 6 7 7 6 6 5 3
15 14 13 6 3 5 8 13 12 12 12 11 10 10 9 8 7 7 8 8 9 10 10 10 11 12 12 10 10 7 7 6 7 6 8 10 10 10 10 10 8 8 7 8 8 7 5 5 5
17 16 13 8 3 2 5 11 14 14 14 13 11 10 9 9 8 7 7 8 9 10 11 10 11 12 13 11 7 6 6 5 7 9 10 12 12 11 10 11 10 9 9 9 10 9 9 7 6
17 13 11 8 6 5 6 8 9 11 13 14 13 11 11 10 9 7 7 8 9 10 9 10 10 11 11 12 10 11 11 12 12 9 8 10 12 13 13 12 12 11 9 10 10 11 9 8 7
8 6 8 9 8 8 8 9 7 8 12 12 12 12 11 10 9 8 7 7 7 7 8 8 9 9 10 11 13 13 12 11 7 7 9 10 11 13 14 13 13 12 11 11 10 10 11 10 9
6 3 3 5 6 13 15 12 9 9 11 9 9 9 9 8 7 6 5 4 4 4 5 6 7 8 8 10 12 13 14 12 10 10 10 9 9 10 14 14 13 13 12 12 12 11 12 11 11
10 8 6 8 10 11 10 12 11 8 8 8 6 5 4 4 4 3 3 3 3 3 4 5 6 7 7 9 10 12 14 13 13 12 11 9 8 9 12 13 13 13 13 12 11 11 12 12 12
16 14 10 8 7 5 8 12 9 7 6 4 4 3 2 2 2 2 2 2 2 2 3 3 5 6 6 7 9 9 11 10 9 11 10 9 9 9 9 12 13 14 13 12 12 11 12 10 12
14 15 10 4 2 3 6 6 7 5 5 5 5 4 4 3 2 2 1 1 1 1 2 2 3 4 5 6 7 7 8 9 9 9 9 8 7 7 9 11 13 13 13 13 12 11 12 11 12
10 9 6 9 8 8 7 8 7 7 9 9 8 6 4 3 2 1 1 0 0 1 1 1 2 3 4 4 5 5 7 8 8 8 8 8 8 7 8 9 11 12 12 12 12 11 10 11 11
13 12 9 7 6 6 6 6 5 7 8 7 6 4 4 3 2 1 0 0 1 1 1 2 2 3 3 4 4 5 5 6 7 7 8 8 7 8 8 9 9 10 11 11 12 12 11 13 12
13 14 13 9 8 6 4 6 1 2 3 5 5 4 3 2 2 1 1 1 2 2 2 2 2 2 3 3 3 4 4 5 5 6 7 7 7 7 7 7 8 9 10 10 12 13 12 13 13
Wind_Direction
312 307 298 276 263 242 113 88 84 87 77 51 38 1 26 48 37 94 121 108 114 119 126 131 127 126 124 122 120 118 116 112 108 105 104 102 101 99 97 95 95 94 92 91 88 86 84 82 80
306 305 297 260 267 274 102 109 95 69 76 88 84 316 62 80 79 104 118 116 121 125 134 132 128 129 129 127 126 123 119 116 113 111 108 106 104 102 100 99 99 98 97 95 93 90 88 85 82
297 286 281 280 270 323 65 83 94 87 89 80 106 36 36 69 101 117 123 132 123 125 124 126 132 133 134 132 130 128 124 122 119 116 114 111 108 104 103 102 102 101 101 99 96 94 92 88 84
303 291 258 268 286 14 47 83 103 117 124 79 340 108 83 48 78 110 130 134 124 121 121 130 135 137 139 139 137 133 131 128 125 122 120 116 112 108 105 102 104 103 102 101 100 97 95 90 83
275 269 267 267 275 47 49 70 107 147 151 143 249 101 95 84 94 116 144 134 128 124 125 135 136 140 143 146 144 141 138 135 131 129 126 123 119 115 112 109 109 106 105 105 103 101 98 93 83
293 278 271 263 247 138 123 110 174 187 119 116 232 103 103 123 123 138 143 140 131 128 129 135 138 143 145 147 150 147 144 140 137 135 132 131 129 126 122 119 117 115 113 112 110 108 105 99 86
286 284 277 284 285 168 127 116 222 220 151 129 88 97 119 137 131 142 141 149 134 132 135 142 150 150 147 148 150 148 146 143 141 139 135 131 130 129 125 123 128 128 125 122 120 118 115 108 93
304 286 270 269 272 242 123 136 315 323 63 71 14 19 128 140 134 138 138 147 133 136 147 155 160 161 159 155 154 150 148 145 143 137 133 130 128 127 128 132 137 140 137 135 134 132 130 120 110
293 258 258 263 270 267 127 162 148 12 32 103 74 57 101 125 133 139 143 153 146 152 166 165 164 167 165 165 159 153 150 149 144 140 145 147 159 156 158 161 144 143 142 146 149 150 146 146 163
223 242 250 273 301 336 123 180 154 182 222 186 150 110 118 133 151 163 171 177 176 179 182 176 170 170 168 163 153 165 165 160 169 161 166 191 189 165 158 143 144 144 146 154 165 173 179 197 199
219 240 264 282 331 359 356 279 200 227 245 223 178 154 149 157 170 181 186 187 186 187 188 187 180 169 168 152 161 172 172 170 188 174 180 197 174 142 138 139 142 150 161 174 179 190 219 222 209
239 252 266 281 10 360 302 278 259 245 264 11 62 144 157 173 185 190 193 192 186 188 190 192 189 177 177 168 174 172 170 171 184 178 180 180 167 172 171 167 172 178 187 194 185 204 221 219 221
237 250 265 284 327 293 289 272 262 253 251 138 101 142 173 187 195 195 193 193 189 191 188 187 191 192 184 181 181 180 179 177 182 176 181 178 175 185 187 182 181 184 187 190 196 209 210 209 216
245 246 254 254 252 251 255 262 256 252 236 212 186 193 199 199 196 193 191 194 194 194 191 185 189 196 190 188 188 189 189 187 186 178 183 187 186 187 187 187 187 195 195 190 194 208 204 206 211
256 261 259 244 232 231 245 254 239 245 237 228 216 210 208 204 197 198 195 194 194 192 191 189 189 194 197 197 195 194 196 192 194 186 186 188 194 193 187 188 189 199 201 198 196 212 205 208 211
222 236 243 231 220 215 212 250 242 233 222 230 227 221 211 205 201 201 198 193 191 188 190 191 188 193 199 202 200 197 199 197 196 194 191 193 196 196 190 190 193 193 193 190 192 205 208 218 218
207 222 231 233 211 206 211 247 252 241 226 232 229 226 222 212 207 202 197 193 191 188 188 190 189 193 197 201 204 205 203 204 199 197 197 199 198 199 195 194 195 190 191 191 194 199 202 213 220
202 216 229 231 210 208 223 240 249 244 237 237 238 234 231 227 215 203 198 194 191 189 188 189 190 193 193 197 206 213 214 211 206 205 204 201 201 200 199 198 198 192 190 194 196 202 206 210 212
233 228 229 234 225 215 231 244 248 246 239 237 239 238 234 232 225 207 196 191 187 188 191 192 193 193 191 195 201 207 214 212 211 212 209 207 204 200 201 202 200 199 197 197 197 196 207 215 204
237 246 248 252 222 231 249 253 252 246 243 236 234 237 238 237 227 213 198 190 190 194 197 200 199 195 195 199 201 204 205 212 216 215 218 216 212 205 203 205 204 202 202 201 201 199 201 208 190
226 232 237 239 247 259 286 268 250 247 244 243 237 234 237 237 231 221 204 196 194 199 201 205 206 203 199 196 191 194 201 211 214 216 217 216 215 214 209 208 207 206 205 209 207 203 202 209 205
226 224 235 233 230 237 213 266 248 240 238 233 231 228 230 232 231 223 210 202 199 204 203 205 208 207 202 193 196 198 204 213 216 214 214 210 211 216 215 213 212 213 212 212 210 209 208 204 210
217 201 222 231 236 249 230 253 256 235 239 231 224 221 219 220 220 220 214 209 206 201 200 205 207 209 205 200 200 204 215 220 218 212 213 212 211 213 214 214 215 217 218 218 214 211 212 212 213
196 190 234 238 236 240 228 235 258 224 233 232 223 217 214 212 211 215 217 209 207 198 194 200 205 213 211 208 207 208 216 218 217 217 217 215 212 211 212 213 215 218 220 221 219 217 216 217 218
185 175 201 209 218 235 204 221 243 221 229 226 225 218 201 193 198 210 217 213 207 201 200 203 209 221 219 216 216 215 218 219 222 222 223 219 215 213 211 209 215 218 221 221 219 219 221 220 220
196 193 200 208 213 223 194 220 241 217 214 208 205 197 189 185 179 196 211 214 212 210 208 209 217 226 228 225 226 224 220 220 226 226 226 223 221 219 209 207 212 216 217 220 220 223 224 223 225
195 206 215 235 260 247 227 235 243 207 200 204 206 206 199 186 181 190 191 209 218 210 218 219 234 238 237 237 235 231 225 223 227 229 228 229 227 220 211 207 210 213 214 216 218 225 224 224 227
207 186 181 206 206 224 231 227 226 196 202 206 202 196 186 161 143 123 106 86 334 273 262 256 249 252 253 249 244 241 236 229 229 230 234 234 233 226 217 213 212 212 213 214 216 222 224 226 228
191 199 199 195 204 204 220 235 220 195 191 191 180 163 151 143 136 125 106 323 289 300 291 275 275 278 277 268 261 254 249 242 236 233 235 237 236 230 225 220 216 213 212 211 215 220 219 224 229
204 203 201 204 206 211 227 253 311 92 123 134 138 139 136 136 129 129 123 44 22 0 342 325 310 298 288 282 277 271 267 258 249 244 242 239 240 236 231 226 224 221 217 213 215 220 221 224 227